Time,TemperatureF,DewpointF,PressureIn,WindDirection,WindDirectionDegrees,WindSpeedMPH,WindSpeedGustMPH,Humidity,HourlyPrecipIn,Conditions,Clouds,dailyrainin,SolarRadiationWatts/m^2,SoftwareType,DateUTC
2013-05-18 00:02:00,49.0,16.0,-100.00,SW,220,3.0,7.0,27,0.00,,,0.00,0.000000,,2013-05-18 06:02:00,
2013-05-18 00:11:00,49.0,16.0,-100.00,SW,220,3.0,7.0,27,0.00,,,0.00,0.000000,,2013-05-18 06:11:00,
2013-05-18 00:22:00,49.0,16.0,-100.00,SW,220,3.0,7.0,27,0.00,,,0.00,0.000000,,2013-05-18 06:22:00,
2013-05-18 00:52:00,50.0,18.0,-100.00,SSW,212,3.0,5.0,28,0.00,,,0.00,0.000000,,2013-05-18 06:52:00,
2013-05-18 01:01:00,50.0,18.0,-100.00,SSW,212,3.0,5.0,28,0.00,,,0.00,0.000000,,2013-05-18 07:01:00,
2013-05-18 01:11:00,50.0,18.0,-100.00,SSW,212,3.0,5.0,28,0.00,,,0.00,0.000000,,2013-05-18 07:11:00,
2013-05-18 01:21:00,50.0,18.0,-100.00,SSW,212,3.0,5.0,28,0.00,,,0.00,0.000000,,2013-05-18 07:21:00,
2013-05-18 01:52:00,48.0,20.0,-100.00,SSW,202,3.0,5.0,32,0.00,,,0.00,0.000000,,2013-05-18 07:52:00,
2013-05-18 02:01:00,48.0,20.0,-100.00,SSW,202,3.0,5.0,32,0.00,,,0.00,0.000000,,2013-05-18 08:01:00,
2013-05-18 02:11:00,48.0,20.0,-100.00,SSW,202,3.0,5.0,32,0.00,,,0.00,0.000000,,2013-05-18 08:11:00,
2013-05-18 02:21:00,48.0,20.0,-100.00,SSW,202,3.0,5.0,32,0.00,,,0.00,0.000000,,2013-05-18 08:21:00,
2013-05-18 02:52:00,49.0,23.0,-100.00,SSE,164,5.0,14.0,35,0.00,,,0.00,0.000000,,2013-05-18 08:52:00,
2013-05-18 03:02:00,49.0,23.0,-100.00,SSE,164,5.0,14.0,35,0.00,,,0.00,0.000000,,2013-05-18 09:02:00,
2013-05-18 03:11:00,49.0,23.0,-100.00,SSE,164,5.0,14.0,35,0.00,,,0.00,0.000000,,2013-05-18 09:11:00,
2013-05-18 03:22:00,49.0,23.0,-100.00,SSE,164,5.0,14.0,35,0.00,,,0.00,0.000000,,2013-05-18 09:22:00,
2013-05-18 03:53:00,50.0,23.0,-100.00,SSW,201,9.0,25.0,34,0.00,,,0.00,0.000000,,2013-05-18 09:53:00,
2013-05-18 04:02:00,50.0,23.0,-100.00,SSW,201,9.0,25.0,34,0.00,,,0.00,0.000000,,2013-05-18 10:02:00,
2013-05-18 04:12:00,50.0,23.0,-100.00,SSW,201,9.0,25.0,34,0.00,,,0.00,0.000000,,2013-05-18 10:12:00,
2013-05-18 04:22:00,50.0,23.0,-100.00,SSW,201,9.0,25.0,34,0.00,,,0.00,0.000000,,2013-05-18 10:22:00,
2013-05-18 04:52:00,48.0,22.0,-100.00,SSW,211,5.0,18.0,35,0.00,,,0.00,0.000000,,2013-05-18 10:52:00,
2013-05-18 05:02:00,48.0,22.0,-100.00,SSW,211,5.0,18.0,35,0.00,,,0.00,0.000000,,2013-05-18 11:02:00,
2013-05-18 05:12:00,48.0,22.0,-100.00,SSW,211,5.0,18.0,35,0.00,,,0.00,0.000000,,2013-05-18 11:12:00,
2013-05-18 05:22:00,48.0,22.0,-100.00,SSW,211,5.0,18.0,35,0.00,,,0.00,0.000000,,2013-05-18 11:22:00,
2013-05-18 05:52:00,47.0,23.0,-100.00,South,179,4.0,8.0,39,0.00,,,0.00,0.000000,,2013-05-18 11:52:00,
2013-05-18 06:01:00,47.0,23.0,-100.00,South,179,4.0,8.0,39,0.00,,,0.00,0.000000,,2013-05-18 12:01:00,
2013-05-18 06:12:00,47.0,23.0,-100.00,South,179,4.0,8.0,39,0.00,,,0.00,0.000000,,2013-05-18 12:12:00,
2013-05-18 06:23:00,47.0,23.0,-100.00,South,179,4.0,8.0,39,0.00,,,0.00,0.000000,,2013-05-18 12:23:00,
2013-05-18 06:42:00,46.0,25.0,-100.00,SW,218,3.0,7.0,43,0.00,,,0.00,1.000000,,2013-05-18 12:42:00,
2013-05-18 06:52:00,46.0,25.0,-100.00,SW,218,3.0,7.0,43,0.00,,,0.00,1.000000,,2013-05-18 12:52:00,
2013-05-18 07:01:00,46.0,25.0,-100.00,SW,218,3.0,7.0,43,0.00,,,0.00,1.000000,,2013-05-18 13:01:00,
2013-05-18 07:11:00,46.0,25.0,-100.00,SW,218,3.0,7.0,43,0.00,,,0.00,1.000000,,2013-05-18 13:11:00,
2013-05-18 07:21:00,46.0,25.0,-100.00,SW,218,3.0,7.0,43,0.00,,,0.00,1.000000,,2013-05-18 13:21:00,
2013-05-18 07:52:00,47.0,26.0,-100.00,South,176,4.0,7.0,44,0.00,,,0.00,25.000000,,2013-05-18 13:52:00,
2013-05-18 08:03:00,47.0,26.0,-100.00,South,176,4.0,7.0,44,0.00,,,0.00,25.000000,,2013-05-18 14:03:00,
2013-05-18 08:12:00,47.0,26.0,-100.00,South,176,4.0,7.0,44,0.00,,,0.00,25.000000,,2013-05-18 14:12:00,
2013-05-18 08:22:00,47.0,26.0,-100.00,South,176,4.0,7.0,44,0.00,,,0.00,25.000000,,2013-05-18 14:22:00,
2013-05-18 08:54:00,52.0,28.0,-100.00,South,177,6.0,11.0,40,0.00,,,0.00,218.000000,,2013-05-18 14:54:00,
2013-05-18 09:03:00,52.0,28.0,-100.00,South,177,6.0,11.0,40,0.00,,,0.00,218.000000,,2013-05-18 15:03:00,
2013-05-18 09:13:00,52.0,28.0,-100.00,South,177,6.0,11.0,40,0.00,,,0.00,218.000000,,2013-05-18 15:13:00,
2013-05-18 09:23:00,52.0,28.0,-100.00,South,177,6.0,11.0,40,0.00,,,0.00,218.000000,,2013-05-18 15:23:00,
2013-05-18 09:43:00,53.0,27.0,-100.00,SSW,195,10.0,17.0,37,0.00,,,0.00,468.000000,,2013-05-18 15:43:00,
2013-05-18 09:53:00,53.0,27.0,-100.00,SSW,195,10.0,17.0,37,0.00,,,0.00,468.000000,,2013-05-18 15:53:00,
2013-05-18 10:02:00,53.0,27.0,-100.00,SSW,195,10.0,17.0,37,0.00,,,0.00,468.000000,,2013-05-18 16:02:00,
2013-05-18 10:12:00,53.0,27.0,-100.00,SSW,195,10.0,17.0,37,0.00,,,0.00,468.000000,,2013-05-18 16:12:00,
2013-05-18 10:22:00,53.0,27.0,-100.00,SSW,195,10.0,17.0,37,0.00,,,0.00,468.000000,,2013-05-18 16:22:00,
2013-05-18 10:52:00,55.0,27.0,-100.00,SSW,210,9.0,16.0,34,0.00,,,0.00,671.000000,,2013-05-18 16:52:00,
2013-05-18 11:02:00,55.0,27.0,-100.00,SSW,210,9.0,16.0,34,0.00,,,0.00,671.000000,,2013-05-18 17:02:00,
2013-05-18 11:12:00,55.0,27.0,-100.00,SSW,210,9.0,16.0,34,0.00,,,0.00,671.000000,,2013-05-18 17:12:00,
2013-05-18 11:22:00,55.0,27.0,-100.00,SSW,210,9.0,16.0,34,0.00,,,0.00,671.000000,,2013-05-18 17:22:00,
2013-05-18 11:42:00,58.0,26.0,-100.00,South,191,12.0,22.0,29,0.00,,,0.00,886.000000,,2013-05-18 17:42:00,
2013-05-18 11:52:00,58.0,26.0,-100.00,South,191,12.0,22.0,29,0.00,,,0.00,886.000000,,2013-05-18 17:52:00,
2013-05-18 12:01:00,58.0,26.0,-100.00,South,191,12.0,22.0,29,0.00,,,0.00,886.000000,,2013-05-18 18:01:00,
2013-05-18 12:12:00,58.0,26.0,-100.00,South,191,12.0,22.0,29,0.00,,,0.00,886.000000,,2013-05-18 18:12:00,
2013-05-18 12:21:00,58.0,26.0,-100.00,South,191,12.0,22.0,29,0.00,,,0.00,886.000000,,2013-05-18 18:21:00,
2013-05-18 12:42:00,58.0,23.0,-100.00,WSW,241,11.0,21.0,26,0.00,,,0.00,748.000000,,2013-05-18 18:42:00,
2013-05-18 12:52:00,58.0,23.0,-100.00,WSW,241,11.0,21.0,26,0.00,,,0.00,748.000000,,2013-05-18 18:52:00,
2013-05-18 13:02:00,58.0,23.0,-100.00,WSW,241,11.0,21.0,26,0.00,,,0.00,748.000000,,2013-05-18 19:02:00,
2013-05-18 13:11:00,58.0,23.0,-100.00,WSW,241,11.0,21.0,26,0.00,,,0.00,748.000000,,2013-05-18 19:11:00,
2013-05-18 13:21:00,58.0,23.0,-100.00,WSW,241,11.0,21.0,26,0.00,,,0.00,748.000000,,2013-05-18 19:21:00,
2013-05-18 13:52:00,56.0,22.0,-100.00,WSW,240,9.0,20.0,26,0.00,,,0.00,709.000000,,2013-05-18 19:52:00,
2013-05-18 14:01:00,56.0,22.0,-100.00,WSW,240,9.0,20.0,26,0.00,,,0.00,709.000000,,2013-05-18 20:01:00,
2013-05-18 14:11:00,56.0,22.0,-100.00,WSW,240,9.0,20.0,26,0.00,,,0.00,709.000000,,2013-05-18 20:11:00,
2013-05-18 14:22:00,56.0,22.0,-100.00,WSW,240,9.0,20.0,26,0.00,,,0.00,709.000000,,2013-05-18 20:22:00,
2013-05-18 14:52:00,59.0,22.0,-100.00,WSW,246,11.0,22.0,24,0.00,,,0.00,830.000000,,2013-05-18 20:52:00,
2013-05-18 15:01:00,59.0,22.0,-100.00,WSW,246,11.0,22.0,24,0.00,,,0.00,830.000000,,2013-05-18 21:01:00,
2013-05-18 15:11:00,59.0,22.0,-100.00,WSW,246,11.0,22.0,24,0.00,,,0.00,830.000000,,2013-05-18 21:11:00,
2013-05-18 15:21:00,59.0,22.0,-100.00,WSW,246,11.0,22.0,24,0.00,,,0.00,830.000000,,2013-05-18 21:21:00,
2013-05-18 15:53:00,58.0,21.0,-100.00,WSW,253,17.0,30.0,24,0.00,,,0.00,853.000000,,2013-05-18 21:53:00,
2013-05-18 16:03:00,58.0,21.0,-100.00,WSW,253,17.0,30.0,24,0.00,,,0.00,853.000000,,2013-05-18 22:03:00,
2013-05-18 16:12:00,58.0,21.0,-100.00,WSW,253,17.0,30.0,24,0.00,,,0.00,853.000000,,2013-05-18 22:12:00,
2013-05-18 16:23:00,58.0,21.0,-100.00,WSW,253,17.0,30.0,24,0.00,,,0.00,853.000000,,2013-05-18 22:23:00,
2013-05-18 16:52:00,59.0,28.0,-100.00,West,270,10.0,25.0,31,0.00,,,0.00,817.000000,,2013-05-18 22:52:00,
2013-05-18 17:01:00,59.0,28.0,-100.00,West,270,10.0,25.0,31,0.00,,,0.00,817.000000,,2013-05-18 23:01:00,
2013-05-18 17:11:00,59.0,28.0,-100.00,West,270,10.0,25.0,31,0.00,,,0.00,817.000000,,2013-05-18 23:11:00,
2013-05-18 17:21:00,59.0,28.0,-100.00,West,270,10.0,25.0,31,0.00,,,0.00,817.000000,,2013-05-18 23:21:00,
2013-05-18 17:42:00,53.0,27.0,-100.00,West,280,9.0,24.0,36,0.00,,,0.00,438.000000,,2013-05-18 23:42:00,
2013-05-18 17:53:00,53.0,27.0,-100.00,West,280,9.0,24.0,36,0.00,,,0.00,438.000000,,2013-05-18 23:53:00,
2013-05-18 18:01:00,53.0,27.0,-100.00,West,280,9.0,24.0,36,0.00,,,0.00,438.000000,,2013-05-19 00:01:00,
2013-05-18 18:11:00,53.0,27.0,-100.00,West,280,9.0,24.0,36,0.00,,,0.00,438.000000,,2013-05-19 00:11:00,
2013-05-18 18:21:00,53.0,27.0,-100.00,West,280,9.0,24.0,36,0.00,,,0.00,438.000000,,2013-05-19 00:21:00,
2013-05-18 18:42:00,43.0,34.0,-100.00,NNW,334,16.0,28.0,69,0.00,,,0.00,60.000000,,2013-05-19 00:42:00,
2013-05-18 18:52:00,43.0,34.0,-100.00,NNW,334,16.0,28.0,69,0.00,,,0.00,60.000000,,2013-05-19 00:52:00,
2013-05-18 19:01:00,43.0,34.0,-100.00,NNW,334,16.0,28.0,69,0.00,,,0.00,60.000000,,2013-05-19 01:01:00,
2013-05-18 19:42:00,46.0,30.0,-100.00,ENE,74,5.0,19.0,54,-99.99,,,0.00,164.000000,,2013-05-19 01:42:00,
2013-05-18 19:52:00,46.0,30.0,-100.00,ENE,74,5.0,19.0,54,-99.99,,,0.00,164.000000,,2013-05-19 01:52:00,
2013-05-18 20:01:00,46.0,30.0,-100.00,ENE,74,5.0,19.0,54,-99.99,,,0.00,164.000000,,2013-05-19 02:01:00,
2013-05-18 20:11:00,46.0,30.0,-100.00,ENE,74,5.0,19.0,54,-99.99,,,0.00,164.000000,,2013-05-19 02:11:00,
2013-05-18 20:21:00,46.0,30.0,-100.00,ENE,74,5.0,19.0,54,-99.99,,,0.00,164.000000,,2013-05-19 02:21:00,
2013-05-18 20:52:00,43.0,31.0,-100.00,NNW,331,14.0,27.0,62,0.00,,,0.00,22.000000,,2013-05-19 02:52:00,
2013-05-18 21:01:00,43.0,31.0,-100.00,NNW,331,14.0,27.0,62,0.00,,,0.00,22.000000,,2013-05-19 03:01:00,
2013-05-18 21:11:00,43.0,31.0,-100.00,NNW,331,14.0,27.0,62,0.00,,,0.00,22.000000,,2013-05-19 03:11:00,
2013-05-18 21:21:00,43.0,31.0,-100.00,NNW,331,14.0,27.0,62,0.00,,,0.00,22.000000,,2013-05-19 03:21:00,
2013-05-18 21:53:00,40.0,31.0,-100.00,ENE,64,3.0,16.0,71,0.00,,,0.00,9.000000,,2013-05-19 03:53:00,
2013-05-18 22:02:00,40.0,31.0,-100.00,ENE,64,3.0,16.0,71,0.00,,,0.00,9.000000,,2013-05-19 04:02:00,
2013-05-18 22:12:00,40.0,31.0,-100.00,ENE,64,3.0,16.0,71,0.00,,,0.00,9.000000,,2013-05-19 04:12:00,
2013-05-18 22:23:00,40.0,31.0,-100.00,ENE,64,3.0,16.0,71,0.00,,,0.00,9.000000,,2013-05-19 04:23:00,
2013-05-18 22:53:00,38.0,29.0,-100.00,North,354,3.0,4.0,71,0.00,,,0.00,0.000000,,2013-05-19 04:53:00,
2013-05-18 23:02:00,38.0,29.0,-100.00,North,354,3.0,4.0,71,0.00,,,0.00,0.000000,,2013-05-19 05:02:00,
2013-05-18 23:12:00,38.0,29.0,-100.00,North,354,3.0,4.0,71,0.00,,,0.00,0.000000,,2013-05-19 05:12:00,
2013-05-18 23:21:00,38.0,29.0,-100.00,North,354,3.0,4.0,71,0.00,,,0.00,0.000000,,2013-05-19 05:21:00,
2013-05-18 23:42:00,38.0,28.0,-100.00,NW,319,2.0,7.0,66,0.00,,,0.00,0.000000,,2013-05-19 05:42:00,
2013-05-18 23:52:00,38.0,28.0,-100.00,NW,319,2.0,7.0,66,0.00,,,0.00,0.000000,,2013-05-19 05:52:00,